Location: ??????
(41.3164°N, 22.6615°E)
Time: 19:29:23
(UTC+00:00)

ZACube-1 - Pass Details

Date: 30 June 2022
Orbit: 582 x 661 km, 97.6° (Epoch: 07 August)

Event Time Altitude Azimuth Distance (km) Brightness Sun altitude
Rises 01:54:12 0° 19° (NNE) 2,946 ? -10.4°
Reaches altitude 10° 01:56:31 10° 27° (NNE) 2,044 ? -10.1°
Maximum altitude 02:00:44 41° 98° (E) 943 ? -9.5°
Drops below altitude 10° 02:05:00 10° 169° (S) 2,062 ? -9.0°
Sets 02:07:20 0° 176° (S) 2,974 ? -8.6°
